Weather History for Glendive, MT

Change the Weather History Date:

Tuesday, April 30, 2013

  Actual Average Record
Temperature  
Mean Temperature 31 °F -  
Max Temperature 39 °F 59 °F 73 °F (1998)
Min Temperature 23 °F 36 °F 23 °F (2013)
Degree Days  
Heating Degree Days 34    
Moisture  
Dew Point 24 °F    
Average Humidity 65    
Maximum Humidity 87    
Minimum Humidity 45    
Precipitation  
Precipitation 0.00 in - - ()
Sea Level Pressure  
Sea Level Pressure 29.88 in    
Wind  
Wind Speed 20 mph (WNW)    
Max Wind Speed 31 mph    
Max Gust Speed 46 mph    
Visibility 10 miles    
Events      
Averages and records for this station are not official NWS values.
T = Trace of Precipitation, MM = Missing Value Source: NWS Daily Summary

Daily Weather History Graph

Daily Weather History Graph

Search for Another Location

Airport:

Trip Planner

Search our weather history database for the weather conditions in past years. The results will help you decide how hot, cold, wet, or windy it might be!

Date:

Astronomy

Apr. 30, 2013 Rise Set
Actual Time 5:44 AM MDT 8:09 PM MDT
Civil Twilight 5:10 AM MDT 8:43 PM MDT
Nautical Twilight 4:28 AM MDT 9:25 PM MDT
Astronomical Twilight 3:39 AM MDT 10:14 PM MDT
Moon 12:38 AM MDT (4/30) 10:12 AM MDT (4/30)
Length of Visible Light 15h 32m
Length of Day
14h 24m
Waning Gibbous, 69% of the Moon is Illuminated
Apr 30
Waning Gibbous
May 2
Last Quarter
May 9
New
May 17
First Quarter
May 24
Full

Hourly Weather History & Observations

Time (MDT) Temp. Windchill Dew Point Humidity Pressure Visibility Wind Dir Wind Speed Gust Speed Precip Events Conditions
12:15 AM 37.4 °F 28.9 °F 28.4 °F 70% 29.57 in 10.0 mi West 13.8 mph - N/A   Clear
12:35 AM 37.4 °F 28.5 °F 28.4 °F 70% 29.57 in 10.0 mi West 15.0 mph - N/A   Clear
12:55 AM 39.2 °F 30.5 °F 26.6 °F 61% 29.57 in 10.0 mi West 16.1 mph - N/A   Clear
1:15 AM 39.2 °F 30.2 °F 26.6 °F 61% 29.58 in 10.0 mi WSW 17.3 mph 21.9 mph N/A   Clear
1:35 AM 39.2 °F 29.8 °F 24.8 °F 56% 29.58 in 10.0 mi WSW 18.4 mph 25.3 mph N/A   Clear
1:55 AM 37.4 °F 27.5 °F 26.6 °F 65% 29.58 in 10.0 mi WSW 18.4 mph 27.6 mph N/A   Clear
2:15 AM 37.4 °F 26.9 °F 26.6 °F 65% 29.58 in 10.0 mi WSW 20.7 mph 26.5 mph N/A   Clear
2:35 AM 37.4 °F 26.1 °F 28.4 °F 70% 29.58 in 10.0 mi West 24.2 mph 33.4 mph N/A   Partly Cloudy
2:55 AM 37.4 °F 24.8 °F 30.2 °F 75% 29.59 in 10.0 mi West 31.1 mph 39.1 mph N/A   Mostly Cloudy
3:15 AM 37.4 °F 25.4 °F 30.2 °F 75% 29.60 in 10.0 mi West 27.6 mph 35.7 mph N/A   Mostly Cloudy
3:35 AM 35.6 °F 22.5 °F 32.0 °F 87% 29.60 in 9.0 mi West 29.9 mph 46.0 mph N/A   Overcast
3:55 AM 37.4 °F 25.2 °F 30.2 °F 75% 29.62 in 10.0 mi West 28.8 mph 39.1 mph N/A   Overcast
4:15 AM 35.6 °F 24.5 °F 30.2 °F 81% 29.64 in 10.0 mi West 20.7 mph 34.5 mph N/A   Overcast
4:35 AM 35.6 °F 24.0 °F 30.2 °F 81% 29.66 in 10.0 mi West 23.0 mph 34.5 mph N/A   Overcast
4:55 AM 35.6 °F 23.0 °F 28.4 °F 75% 29.67 in 10.0 mi WNW 27.6 mph 39.1 mph N/A   Overcast
5:15 AM 35.6 °F 22.5 °F 28.4 °F 75% 29.68 in 10.0 mi WNW 29.9 mph 36.8 mph N/A   Overcast
5:35 AM 35.6 °F 23.2 °F 28.4 °F 75% 29.69 in 10.0 mi WNW 26.5 mph 31.1 mph N/A   Overcast
5:55 AM 33.8 °F 21.6 °F 28.4 °F 81% 29.70 in 4.0 mi West 23.0 mph 31.1 mph N/A   Overcast
6:15 AM 33.8 °F 20.5 °F 26.6 °F 75% 29.70 in 10.0 mi WNW 27.6 mph 36.8 mph N/A   Mostly Cloudy
6:35 AM 33.8 °F 21.6 °F 26.6 °F 75% 29.71 in 10.0 mi WNW 23.0 mph 31.1 mph N/A   Partly Cloudy
6:55 AM 33.8 °F 21.3 °F 26.6 °F 75% 29.72 in 10.0 mi WNW 24.2 mph 32.2 mph N/A   Clear
7:15 AM 35.6 °F 22.7 °F 26.6 °F 70% 29.73 in 10.0 mi WNW 28.8 mph 34.5 mph N/A   Partly Cloudy
7:35 AM 35.6 °F 23.4 °F 26.6 °F 70% 29.75 in 10.0 mi West 25.3 mph 34.5 mph N/A   Mostly Cloudy
7:55 AM 33.8 °F 21.0 °F 24.8 °F 70% 29.77 in 10.0 mi West 25.3 mph 35.7 mph N/A   Overcast
8:15 AM 33.8 °F 20.5 °F 24.8 °F 70% 29.78 in 10.0 mi West 27.6 mph 36.8 mph N/A   Overcast
9:15 AM 35.6 °F 24.0 °F 24.8 °F 65% 29.81 in 10.0 mi WNW 23.0 mph 33.4 mph N/A   Overcast
10:15 AM 35.6 °F 24.0 °F 24.8 °F 65% 29.84 in 10.0 mi WNW 23.0 mph 31.1 mph N/A   Overcast
10:35 AM 35.6 °F 23.7 °F 24.8 °F 65% 29.85 in 10.0 mi WNW 24.2 mph 31.1 mph N/A   Overcast
11:15 AM 35.6 °F 24.8 °F 24.8 °F 65% 29.87 in 10.0 mi WNW 19.6 mph 26.5 mph N/A   Overcast
11:35 AM 35.6 °F 25.2 °F 24.8 °F 65% 29.88 in 10.0 mi WNW 18.4 mph 28.8 mph N/A   Overcast
11:55 AM 35.6 °F 23.7 °F 24.8 °F 65% 29.88 in 10.0 mi West 24.2 mph 28.8 mph N/A   Overcast
12:15 PM 37.4 °F 26.4 °F 24.8 °F 60% 29.89 in 10.0 mi WNW 23.0 mph 29.9 mph N/A   Overcast
12:35 PM 37.4 °F 26.6 °F 24.8 °F 60% 29.90 in 10.0 mi WNW 21.9 mph 28.8 mph N/A   Overcast
12:55 PM 37.4 °F 26.4 °F 24.8 °F 60% 29.90 in 10.0 mi WNW 23.0 mph 32.2 mph N/A   Overcast
1:15 PM 37.4 °F 26.1 °F 24.8 °F 60% 29.90 in 10.0 mi WNW 24.2 mph 29.9 mph N/A   Overcast
1:55 PM 37.4 °F 26.6 °F 24.8 °F 60% 29.93 in 10.0 mi NW 21.9 mph 29.9 mph N/A   Overcast
2:15 PM 37.4 °F 27.2 °F 21.2 °F 52% 29.95 in 10.0 mi WNW 19.6 mph 28.8 mph N/A   Overcast
2:35 PM 37.4 °F 26.9 °F 23.0 °F 56% 29.96 in 10.0 mi WNW 20.7 mph 28.8 mph N/A   Overcast
2:55 PM 37.4 °F 26.4 °F 21.2 °F 52% 29.97 in 10.0 mi NW 23.0 mph 31.1 mph N/A   Overcast
3:15 PM 37.4 °F 26.6 °F 21.2 °F 52% 29.97 in 10.0 mi NW 21.9 mph 31.1 mph N/A   Overcast
3:55 PM 37.4 °F 25.4 °F 21.2 °F 52% 29.99 in 10.0 mi WNW 27.6 mph 34.5 mph N/A   Overcast
4:35 PM 37.4 °F 26.1 °F 19.4 °F 48% 30.00 in 10.0 mi NW 24.2 mph 34.5 mph N/A   Overcast
4:55 PM 37.4 °F 26.4 °F 19.4 °F 48% 30.02 in 10.0 mi NW 23.0 mph 32.2 mph N/A   Overcast
5:15 PM 37.4 °F 26.1 °F 19.4 °F 48% 30.03 in 10.0 mi NW 24.2 mph 31.1 mph N/A   Overcast
5:35 PM 37.4 °F 25.9 °F 19.4 °F 48% 30.05 in 10.0 mi NNW 25.3 mph - N/A   Overcast
5:55 PM 37.4 °F 27.5 °F 19.4 °F 48% 30.06 in 10.0 mi NW 18.4 mph 29.9 mph N/A   Overcast
6:35 PM 37.4 °F 26.6 °F 17.6 °F 45% 30.08 in 10.0 mi NW 21.9 mph - N/A   Mostly Cloudy
6:55 PM 37.4 °F 27.5 °F 19.4 °F 48% 30.09 in 10.0 mi NW 18.4 mph 27.6 mph N/A   Mostly Cloudy
7:15 PM 37.4 °F 26.9 °F 19.4 °F 48% 30.09 in 10.0 mi NNW 20.7 mph - N/A   Mostly Cloudy
7:35 PM 37.4 °F 27.8 °F 19.4 °F 48% 30.11 in 10.0 mi NNW 17.3 mph 23.0 mph N/A   Partly Cloudy
7:55 PM 35.6 °F 27.1 °F 19.4 °F 52% 30.12 in 10.0 mi NNW 12.7 mph - N/A   Partly Cloudy
8:35 PM 30.2 °F 23.4 °F 19.4 °F 64% 30.14 in 10.0 mi North 6.9 mph - N/A   Clear
8:55 PM 30.2 °F - 19.4 °F 64% 30.16 in 10.0 mi Calm Calm - N/A   Clear
9:35 PM 30.2 °F - 19.4 °F 64% 30.19 in 10.0 mi Calm Calm - N/A   Clear
9:55 PM 28.4 °F - 17.6 °F 64% 30.20 in 10.0 mi Calm Calm - N/A   Clear
10:15 PM 24.8 °F 17.9 °F 15.8 °F 69% 30.21 in 10.0 mi WSW 5.8 mph - N/A   Partly Cloudy
10:35 PM 23.0 °F 15.8 °F 17.6 °F 80% 30.22 in 10.0 mi West 5.8 mph - N/A   Mostly Cloudy
10:55 PM 24.8 °F 16.9 °F 19.4 °F 80% 30.23 in 10.0 mi West 6.9 mph - N/A   Overcast
11:15 PM 28.4 °F 23.3 °F 21.2 °F 74% 30.24 in 10.0 mi West 4.6 mph - N/A   Overcast
11:35 PM 28.4 °F 23.3 °F 21.2 °F 74% 30.24 in 10.0 mi WSW 4.6 mph - N/A   Overcast
11:55 PM 28.4 °F 22.2 °F 21.2 °F 74% 30.24 in 10.0 mi WNW 5.8 mph - N/A   Overcast